Location: Asheville, NC
(35.6000°N, 82.5500°W)
Time: 23:36:25
(UTC-04:00)

Iridium 28 - Pass Details

Date: 08 January 2018
Orbit: 771 x 774 km, 86.4° (Epoch: 25 April)

Event Time Altitude Azimuth Distance (km) Brightness Sun altitude
Rises 18:34:53 0° 353° (N) 3,250 8.6 -12.2°
Reaches altitude 10° 18:37:15 10° 350° (N) 2,320 7.9 -12.7°
Maximum altitude 18:42:22 61° 271° (W) 871 6.1 -13.7°
Drops below altitude 10° 18:47:26 10° 192° (SSW) 2,307 8.4 -14.7°
Sets 18:49:48 0° 189° (S) 3,230 9.1 -15.1°
